Location: Krakow
(50.0830°N, 19.9170°E)
Time: 11:30:07
(UTC+01:00)

Transit 2A - Pass Details

Date: 12 February 2023
Orbit: 591 x 964 km, 66.7° (Epoch: 21 March)

Event Time Altitude Azimuth Distance (km) Brightness Sun altitude
Rises 17:23:45 0° 275° (W) 3,191 10.9 -5.6°
Reaches altitude 10° 17:26:41 10° 292° (WNW) 2,341 9.4 -6.0°
Maximum altitude 17:30:37 20° 339° (NNW) 1,832 8.1 -6.6°
Drops below altitude 10° 17:34:51 10° 25° (NNE) 2,529 8.3 -7.3°
Enters shadow 17:37:37 - 40° (NE) 3,353 8.8 -7.7°
Sets 17:38:10 0° 42° (NE) 3,533 - -7.8°
